Location: ??????
(36.0418°N, 43.6351°E)
Time: 04:12:20
(UTC+00:00)

Cosmos 2251 Rocket - Pass Details

Date: 07 March 2021
Orbit: 765 x 792 km, 74.0° (Epoch: 20 April)

Event Time Altitude Azimuth Distance (km) Brightness Sun altitude
Exits shadow 01:38:17 56° 264° (W) 930 3.5 -22.9°
Maximum altitude 01:38:48 59° 290° (WNW) 907 3.5 -22.8°
Drops below altitude 10° 01:44:05 10° 10° (N) 2,357 6.2 -21.7°
Sets 01:46:32 0° 14° (NNE) 3,292 7.1 -21.2°
